Tracking 29606 objects as of 19-Sep-2024
HD Live streaming from Space Station
objects crossing your sky now

STARLINK-32269

Track STARLINK-32269 now!
10-day predictions
STARLINK-32269 is classified as:


NORAD ID: 60377
Int'l Code: 2024-138Y
Perigee: 453.5 km
Apogee: 455.5 km
Inclination: 53.2 °
Period: 93.5 minutes
Semi major axis: 6825 km
RCS: Unknown
Launch date: August 4, 2024
Source: United States (US)
Launch site: AIR FORCE WESTERN TEST RANGE (AFWTR)
Your satellite tracking list
Your tracking list is empty




NASA's NSSDC Master Catalog

Two Line Element Set (TLE):
1 60377U 24138Y   24262.40483805 -.00003046  00000-0 -66287-4 0  9997
2 60377  53.1603 291.8574 0001407  97.0700 263.0465 15.39579698  8279
Source of the keplerian elements: AFSPC